Location: Buldukta?ar Yaylas?
(38.9674°N, 32.0729°E)
Time: 11:15:56
(UTC+00:00)

Daily predictions for brighter satellites

Satellite Brightness Start Highest point End
(mag) Time Altitude Azimuth Time Altitude Azimuth Time Altitude Azimuth
RESURS DK-1 2.2 16:58:27 10° SSW 17:02:22 74° ESE 17:06:18 10° NNE
SL-8 Rocket 4.0 16:56:25 10° S 17:02:35 65° E 17:08:49 10° NNE
USA 238 DEB 4.2 16:55:20 10° NNW 17:02:48 62° NE 17:10:51 10° SE
USA 238 4.2 16:55:31 10° NNW 17:02:59 61° NE 17:11:02 10° SE
Cosmos 2278 Rocket 2.2 16:59:47 10° NNW 17:05:28 72° ENE 17:11:06 10° SSE
Timation 2 Rocket 4.2 17:02:40 10° NNW 17:09:05 67° ENE 17:15:44 10° SSE
SL-8 R/B 3.8 17:07:13 10° WSW 17:11:57 82° NNW 17:16:42 10° ENE
OAO 2 Rocket 3.7 17:07:15 10° WSW 17:12:16 51° S 17:17:13 10° E
Cosmos 1125 Rocket 3.5 17:07:35 10° S 17:12:44 66° ESE 17:17:57 10° NNE
HBTSS-SV1 4.4 17:09:06 10° WSW 17:13:33 81° SSE 17:17:59 10° E
Cosmos 2341 Rocket 4.0 17:09:05 10° S 17:15:20 79° E 17:21:39 10° N
ERS-1 Rocket 4.1 17:14:23 10° ESE 17:18:26 26° ENE 17:22:31 10° NNE
CSL-04 Debris 4.5 17:14:56 10° SE 17:20:03 48° ENE 17:25:13 10° N
Cosmos 2366 rocket 3.9 17:14:01 10° S 17:20:09 81° E 17:26:18 10° N
In-Cosmos 22 Rocket 4.3 17:18:00 10° NNW 17:23:18 75° W 17:28:38 10° S
Cosmos 44 3.5 17:24:54 10° SSW 17:29:41 54° ESE 17:34:46 10° NE
SL-16 R/B 2.6 17:26:56 10° S 17:32:09 40° ESE 17:37:24 10° NE
NOSS 3 (A) 3.3 17:32:53 10° SSW 17:34:46 46° ESE 17:35:24 27° ENE
Okean O Rocket 3.3 17:38:37 14° E 17:39:59 16° ENE 17:42:34 10° NNE
Cosmos 1378 Rocket 3.7 17:36:51 10° N 17:41:06 50° E 17:44:31 15° SSE
SPOT 5 2.8 17:42:07 10° S 17:46:41 74° WSW 17:51:05 10° NNW
CZ-4 R/B 1.1 17:43:54 14° SSE 17:47:06 72° ENE 17:50:47 10° N
PAYLOAD B 4.3 17:47:02 15° SSE 17:51:31 59° ENE 17:56:55 10° N
Meteor 2-8 Rocket 4.5 17:46:26 10° SSE 17:52:19 56° E 17:58:13 10° NNE
Cosmos 1656 Rocket 3.9 17:47:26 10° NNW 17:52:46 50° ENE 17:56:01 23° SE
Cosmos 1821 Rocket 4.1 17:49:24 10° S 17:55:40 81° W 18:02:03 10° N
IRAS Rocket 4.3 17:50:26 10° SSE 17:55:56 82° WSW 18:01:26 10° NNW
Terra 2.0 17:53:33 22° SE 17:56:19 50° ENE 18:00:51 10° N
Cosmos 1733 Rocket 3.8 17:52:45 10° SSW 17:57:01 54° W 18:01:20 10° N
Cosmos 1025 Rocket 3.4 17:53:56 10° N 17:58:00 43° E 17:59:42 28° SE
CZ-4B R/B 4.0 17:55:16 11° S 17:58:43 64° WSW 18:02:32 10° NNW
Cosmos 2237 Rocket 4.2 17:55:13 10° WSW 18:00:15 32° WNW 18:05:19 10° N
Cosmos 2242 Rocket 3.8 17:57:06 10° NNW 18:01:30 69° W 18:05:50 10° S
Helios 1A Rocket 3.0 17:59:08 10° N 18:02:17 54° WNW 18:05:23 10° SSW
Resurs 01 Rocket 4.5 18:00:00 10° SW 18:02:20 14° W 18:04:41 10° WNW
CSL-04 Rocket 4.3 17:59:47 10° S 18:05:15 59° W 18:10:43 10° NNW
Cosmos 2150 Rocket 3.9 18:01:40 10° S 18:06:44 65° ESE 18:11:52 10° NNE
Cosmos 1300 Rocket 4.2 18:11:24 32° E 18:11:24 32° E 18:15:12 10° NNE
Meteor 2-16 Rocket 4.4 18:10:30 10° N 18:16:38 74° E 18:20:28 24° SSE
Cosmos 1000 Rocket 4.4 18:11:01 10° N 18:17:10 69° E 18:20:46 26° SSE
USA 59 Rocket 0.3 18:16:25 10° NW 18:20:08 62° WSW 18:22:13 32° S
Cosmos 1346 Rocket 2.4 18:16:36 10° N 18:20:13 84° E 18:20:53 57° SSE
OAO 3 Rocket 3.6 18:16:48 10° W 18:21:10 42° SSW 18:22:05 38° SSE
Gbstr 26 Del rocket 3.3 18:15:51 10° SW 18:21:20 61° SE 18:24:21 21° ENE
Feng Yun 1-1 Rocket 4.4 18:17:10 16° S 18:21:36 69° WSW 18:27:02 10° NNW
ASTEX 1 3.5 18:20:30 39° SE 18:21:59 54° E 18:26:47 10° N
SL-4 R/B 1.6 18:19:19 10° SW 18:23:05 71° SE 18:23:55 51° ENE
Meteor 1-31 Rocket 4.4 18:21:36 12° SSW 18:24:24 28° W 18:27:29 10° NW
Cosmos 2297 4.3 18:21:58 10° N 18:27:22 40° ENE 18:28:49 34° E
ADEOS 3.5 18:25:50 30° SSE 18:28:31 85° WSW 18:33:46 10° NNW
Cosmos 1869 3.4 18:32:16 51° NE 18:32:16 51° NE 18:35:07 10° NNE
Cosmos 2369 Rocket 2.5 18:26:30 10° NNW 18:31:54 48° ENE 18:33:13 41° ESE
Cosmos 2285 Rocket 4.0 18:26:45 10° SSW 18:33:07 83° WNW 18:39:30 10° NNE
USA 234 3.5 18:27:30 10° NE 18:34:00 69° NW 18:40:30 10° WSW
SL-08 R/B 3.6 18:33:01 10° N 18:37:54 68° WNW 18:42:30 11° SSW
Cosmos 1943 3.2 18:41:49 46° SSE 18:43:10 59° ESE 18:48:45 10° NNE
Cosmos 2221 Rocket 3.5 18:40:11 10° N 18:44:36 81° W 18:45:18 63° SSW
YAOGAN 11 4.0 18:40:25 10° N 18:44:43 81° WNW 18:45:52 49° SSW
CZ-4B R/B 3.7 18:41:50 25° S 18:45:02 58° W 18:50:37 10° NNW
SL-08 R/B 4.4 18:44:35 10° N 18:50:50 90° NE 18:53:09 42° S
CZ-4B R/B 4.5 18:52:52 21° NNE 18:52:52 21° NNE 18:54:18 10° N
HBTSS-SV1 4.5 18:50:51 10° W 18:55:12 77° NNW 18:55:12 77° NNW
OAO 2 Rocket 3.7 18:51:36 10° W 18:56:04 49° SSW 18:56:04 49° SSW
ERS-1 Rocket 4.3 18:54:02 19° SSW 18:56:56 34° W 19:01:29 10° NNW
Cosmos 1975 Rocket 4.1 18:55:59 10° N 18:58:58 35° NE 18:58:58 35° NE
Cosmos 2263 4.1 18:57:18 10° NNW 19:02:56 66° ENE 19:03:18 64° E
Okean-O 2.9 19:07:13 59° W 19:07:13 59° W 19:11:31 10° NNW
BREEZE-M DEB (TANK) 4.4 19:05:04 10° NW 19:06:41 27° N 19:06:41 27° N
Spot 3 4.5 19:08:57 76° S 19:09:21 85° WSW 19:14:42 10° NNW
CZ-4B R/B 3.7 19:15:34 55° NNE 19:15:34 55° NNE 19:19:27 10° N
Okean O Rocket 2.4 19:15:51 44° W 19:15:51 44° W 19:19:55 10° NNW
SL-16 R/B 4.1 19:11:31 10° WSW 19:16:20 28° WNW 19:21:10 10° N
Ariane Rocket 3.4 19:17:10 52° NE 19:17:10 52° NE 19:21:19 10° N
Cosmos 1782 Rocket 4.5 19:21:41 44° WNW 19:21:41 44° WNW 19:25:36 10° N
Spot 2 Rocket 4.3 19:23:16 39° WSW 19:23:54 41° W 19:28:38 10° NNW
Milstar 3 4.2 19:18:23 10° SW 19:41:39 - E 19:24:35 38° S
USA 245 4.2 19:28:49 62° NW 19:28:49 62° NW 19:33:32 10° NNW
Cosmos 1269 Rocket 4.3 19:25:32 10° NNW 19:29:59 62° N 19:29:59 62° N
ATLAS 5 CENTAUR R/B 3.9 19:30:01 10° N 19:31:56 16° NNE 19:31:56 16° NNE
Cosmos 1140 Rocket 3.8 19:28:40 10° NNW 19:32:51 60° NNW 19:32:51 60° NNW
NOSS 3-1 (C) 4.1 19:26:34 10° NW 19:34:05 84° WSW 19:35:43 63° SSE
Terra 4.2 19:32:09 12° WSW 19:34:05 15° W 19:36:50 10° NW
Cosmos 1447 Rocket 4.5 19:37:16 10° N 19:43:03 77° NNE 19:43:03 77° NNE
BREEZE-M DEB (TANK) 3.5 19:39:51 10° NW 19:43:46 83° NE 19:43:55 82° ENE
COSMOS 2455 3.3 19:53:17 10° NNW 19:58:10 54° N 19:58:10 54° N
SJ 16-02 3.7 20:02:46 10° N 20:04:02 18° N 20:04:02 18° N
Cosmos 2369 Rocket 4.0 20:11:23 10° NW 20:14:59 21° W 20:14:59 21° W
SeaSat 1 4.5 20:17:06 21° NNE 20:17:06 21° NNE 20:19:24 10° N
NOSS 3-1 (A) 4.1 20:26:15 10° NW 20:33:20 75° W 20:33:20 75° W
ATLAS 3B R/B 4.3 21:00:14 10° NNW 21:06:49 29° NE 21:08:30 27° ENE
ATLAS 2AS CENTAUR R/B 3.5 21:38:07 46° N 21:38:07 46° N 21:43:16 10° NNE
ACS3 Solar Sail 3.6 21:58:27 10° NE 22:01:13 22° ENE 22:01:13 22° ENE
CZ-4C R/B 4.4 22:20:44 15° NE 22:20:44 15° NE 22:21:43 10° NE
Cosmos 1980 Rocket 4.0 22:24:10 10° NNW 22:26:38 27° NNW 22:26:38 27° NNW
ATLAS 3B R/B 3.6 22:50:38 10° NW 22:55:41 44° NW 22:55:41 44° NW
Cosmos 2082 Rocket 3.6 23:02:51 34° N 23:02:51 34° N 23:06:17 10° NNE
Cosmos 2333 Rocket 3.9 22:56:32 10° N 23:01:18 27° ENE 23:02:07 26° ENE
USA 267 4.5 22:58:06 10° ENE 23:02:10 31° E 23:02:10 31° E
Cosmos 2322 Rocket 4.3 23:08:15 10° N 23:12:31 21° NE 23:16:04 13° E
SL-16 R/B 3.0 23:23:04 10° NNW 23:27:51 47° NE 23:27:51 47° NE
Cosmos 2279 Rocket 4.3 23:43:05 58° NNW 23:43:05 58° NNW 23:48:11 10° N
ACS3 Solar Sail 2.6 23:40:17 10° N 23:44:47 39° NW 23:44:47 39° NW
IDEFIX/ARIANE 42P 3.4 23:42:44 10° N 23:46:20 46° N 23:46:20 46° N
ADEOS Rocket 3.6 23:43:00 10° NNE 23:50:43 72° ESE 23:52:01 61° SSE
Cosmos 1763 Rocket 4.2 23:52:00 53° NE 23:52:00 53° NE 23:56:07 10° NNE
